BRITE-AUSTRIA

Last updated on Sat Apr 13 2024 01:03:20 GMT+0100 (British Summer Time)

1 39091U 13009F 24103.53660491 .00000314 00000+0 12320-3 0 9997 2 39091 98.3871 292.8957 0011565 95.4683 264.7822 14.35736195582847
UTC large
Height (km)
Speed (km/s)
/
Latitude / Longitude
Inclination (degrees)
Orbital Period (minutes)
Azimuth
Elevation
Range (km)
Doppler Factor

Next 0 passes for location: London (51.5072 / 0.1276)

Sorry there are no passes over London.